RH
39 41 43 45 46 48 48 48 47 46 45 42 39 36 32 29 25 21 18 16 15 14 13 12 12 12 12 11 11 10 10 10 9 10 9 9 9 9 9 8 8 8
45 47 49 49 49 48 45 43 40 36 32 28 23 20 17 15 14 13 13 13 13 13 12 12 11 11 11 10 10 9 9 9 8 8 8 8 8 8 8 8 7 7
50 49 48 46 43 40 35 31 26 21 18 15 13 12 12 12 13 13 13 12 12 11 11 10 10 10 9 9 9 9 9 8 8 8 8 8 8 8 8 7 7 7
46 42 39 35 30 26 22 18 15 13 12 12 12 13 12 13 12 12 11 11 10 10 9 9 9 9 9 9 9 9 9 9 9 8 8 8 8 8 7 7 7 7
37 32 27 23 19 16 14 13 13 13 13 13 13 13 12 11 11 10 10 9 9 9 9 9 9 9 9 9 9 9 8 8 8 8 7 7 7 7 6 7 7 7
27 22 19 16 15 14 14 14 14 13 13 13 12 11 10 10 9 9 9 9 9 9 9 9 8 8 8 7 7 7 7 7 7 7 6 6 6 6 6 6 5 6
18 16 16 15 15 15 14 14 14 13 12 11 10 10 9 9 9 9 9 9 8 8 7 7 7 7 7 7 7 7 7 7 6 6 6 6 6 5 5 5 5 5
16 15 15 15 15 15 14 13 13 12 11 10 10 10 9 9 9 9 8 8 7 7 6 6 6 6 6 6 6 6 6 6 6 6 5 5 5 5 5 4 5 5
16 16 16 16 15 14 13 12 11 10 10 9 9 10 10 9 9 8 7 7 6 6 6 6 6 6 5 5 5 5 5 5 5 5 5 5 4 4 4 4 4 4
17 16 15 15 14 13 11 11 10 10 10 10 10 9 9 8 8 7 6 6 6 6 6 6 5 5 5 4 4 4 4 4 5 4 4 4 4 4 4 4 4 4
16 15 14 13 12 11 11 11 11 11 10 10 9 9 8 8 7 7 7 6 6 6 5 5 4 4 4 4 4 4 4 4 4 4 4 4 4 3 3 3 3 3
14 13 12 12 12 12 12 12 12 11 10 9 8 8 8 7 7 7 6 6 5 5 5 4 4 4 4 4 4 4 4 4 3 3 3 3 3 3 3 3 3 3
12 12 13 13 13 13 13 12 11 10 9 8 8 8 7 7 6 6 6 5 5 5 5 5 4 4 5 4 4 4 3 3 3 3 3 3 2 2 2 2 2 2
13 13 14 13 13 12 10 10 9 8 8 7 7 7 6 6 6 5 5 5 5 5 5 5 4 4 4 3 3 3 3 3 3 2 3 3 2 2 2 2 3 2
13 13 12 11 10 9 8 8 8 7 7 7 6 6 6 6 5 5 5 5 5 5 5 4 4 3 3 3 3 3 3 3 3 2 3 3 2 2 3 2 2 2
11 10 10 9 9 8 8 8 7 7 6 6 6 6 5 5 5 5 5 5 5 5 4 4 3 3 3 3 2 2 2 2 3 3 3 3 3 3 3 3 2 2
10 9 9 9 8 8 7 7 7 6 6 6 5 6 5 5 5 5 4 4 4 4 3 3 3 3 3 3 2 2 2 2 3 3 3 3 3 3 3 3 2 2
9 9 9 9 8 8 7 6 6 6 6 5 5 5 5 4 4 4 4 3 3 3 3 3 3 3 3 2 2 2 2 3 3 3 3 3 3 3 3 3 3 2
9 8 8 8 7 7 6 6 6 5 5 5 5 4 4 4 4 3 3 3 3 3 3 3 3 3 3 3 3 3 2 3 3 3 3 3 3 3 3 2 3 2
8 7 7 7 6 6 6 6 5 5 4 4 4 4 4 4 3 3 3 3 3 3 3 3 3 2 3 3 3 3 3 3 3 3 3 3 3 3 3 2 2 2
7 6 6 6 6 6 5 5 4 4 4 3 4 4 3 3 3 3 3 3 3 3 3 3 3 3 3 3 3 3 3 3 3 3 3 3 3 3 3 3 2 2
6 6 6 6 6 5 4 4 4 4 4 4 4 3 3 3 3 3 3 3 3 3 3 3 3 3 3 3 3 3 3 3 3 3 3 3 3 3 3 2 2 2
6 6 6 5 5 4 4 4 4 4 4 4 3 3 4 4 4 3 3 3 3 3 3 3 3 3 3 3 3 3 3 3 3 3 3 3 3 3 2 2 3 2
6 5 5 4 4 4 4 4 4 4 4 4 3 4 4 4 4 3 3 3 3 3 3 3 3 3 3 3 3 3 3 3 3 3 3 3 3 3 3 2 3 3
4 4 4 4 4 4 4 4 4 4 4 4 4 4 4 3 3 3 3 3 3 3 3 3 3 3 3 3 3 3 3 3 3 3 3 3 3 3 3 3 3 3
4 4 4 4 4 4 4 4 3 3 3 4 4 3 3 3 3 3 3 3 3 3 3 2 3 2 2 3 3 3 3 3 3 3 3 3 3 3 3 3 3 3
Wind_Speed
110 111 112 113 114 115 116 117 117 118 118 119 119 119 119 118 118 117 116 116 115 115 114 114 114 114 115 116 116 116 115 115 115 116 118 118 119 119 120 120 121 122
115 116 117 118 119 119 120 120 120 119 118 117 116 114 113 113 112 112 112 112 112 111 111 111 111 111 111 112 113 113 112 112 112 113 115 115 116 117 118 119 120 120
119 120 121 121 121 121 121 120 118 116 114 113 111 110 109 109 109 109 109 109 109 109 108 108 108 108 108 109 110 110 110 110 110 111 112 112 113 114 115 116 118 118
122 122 121 121 120 119 117 116 114 113 111 110 109 109 108 107 107 106 106 107 107 106 106 106 106 106 106 106 106 106 107 107 108 109 110 110 110 111 112 113 114 115
122 122 120 119 118 116 115 114 113 112 111 109 108 107 106 105 105 105 104 105 105 105 104 104 103 103 103 103 103 102 102 103 105 107 108 108 108 109 109 110 110 111
122 121 120 119 118 117 116 114 113 111 109 108 107 106 105 105 104 104 104 103 103 102 101 100 99 99 99 99 99 99 99 100 102 105 106 106 107 107 108 107 106 107
120 120 119 118 118 116 115 114 112 110 109 107 107 106 105 104 104 103 102 101 99 98 98 97 96 96 96 97 97 97 98 99 100 102 105 106 106 107 107 106 104 103
120 119 118 117 116 115 114 113 111 110 109 107 106 106 105 104 102 101 100 99 97 96 96 95 94 94 94 95 96 96 96 97 98 100 102 104 106 106 106 105 102 100
119 118 117 116 115 114 113 112 111 109 108 107 105 104 104 103 102 100 99 98 97 96 95 94 94 93 93 93 93 93 94 94 95 97 100 102 104 104 104 103 99 99
118 117 116 115 114 113 112 111 110 109 107 106 105 104 103 103 102 101 99 98 97 96 95 94 93 92 91 90 90 90 91 91 92 94 97 99 101 101 100 98 96 97
117 116 115 114 114 113 112 111 110 109 108 106 105 104 103 102 102 101 99 98 96 95 94 93 91 89 87 87 87 87 88 89 90 92 94 96 97 97 95 92 92 94
115 114 114 114 114 113 113 112 110 109 108 106 105 103 102 101 100 99 98 97 96 94 93 91 89 87 85 84 84 85 86 87 88 90 92 93 93 91 89 87 88 92
115 114 114 114 114 113 112 111 109 108 106 105 104 102 101 100 99 98 97 96 95 93 91 89 87 85 84 83 83 83 84 85 86 87 88 89 88 87 84 83 85 88
114 114 113 113 111 110 109 107 106 105 104 103 102 101 100 99 98 96 96 95 94 92 90 88 86 84 83 83 82 82 82 82 83 84 84 85 84 83 80 79 82 84
112 111 110 109 108 107 106 105 104 104 103 102 101 100 99 98 96 95 94 92 91 90 89 87 85 84 83 82 81 80 79 79 80 80 80 81 81 79 77 77 79 80
108 107 107 106 106 105 105 104 104 103 102 101 100 99 98 96 94 93 92 90 88 87 87 86 85 84 83 82 80 78 76 76 75 76 77 78 78 76 74 76 78 77
106 105 105 106 106 105 105 104 103 102 101 99 98 96 95 94 92 91 90 89 87 85 84 83 83 83 83 81 79 77 75 73 72 72 74 75 75 74 73 75 75 74
105 105 105 106 105 105 104 103 102 100 98 96 95 93 92 91 91 90 89 88 86 83 81 80 80 81 81 80 78 77 74 71 69 69 72 73 73 73 72 73 73 71
105 105 104 104 103 103 102 100 99 97 96 94 92 91 90 90 89 88 88 86 84 81 78 78 78 79 78 77 77 76 73 69 66 67 70 71 72 72 71 71 70 68
103 103 102 101 101 100 99 98 96 95 94 92 90 89 88 87 86 85 84 82 80 78 75 75 76 76 75 74 74 74 71 68 66 67 69 69 69 70 70 69 67 66
101 100 99 99 98 97 96 95 94 93 91 89 88 87 85 84 81 80 79 78 77 75 73 72 74 73 72 72 71 70 68 66 66 66 66 67 67 69 68 66 64 64
98 97 96 96 95 94 93 92 91 89 88 86 84 83 82 80 78 76 75 73 73 72 71 70 70 70 69 68 68 66 65 64 64 63 64 64 65 66 66 63 61 62
96 95 94 93 92 91 90 88 87 86 85 83 81 78 78 77 75 73 72 70 69 69 68 67 67 67 66 65 65 63 62 61 61 60 61 62 63 64 63 61 59 59
93 92 91 89 88 86 85 84 83 82 81 80 77 75 74 74 72 70 69 69 66 65 64 63 63 64 62 61 61 59 58 58 58 58 58 59 60 61 60 58 56 56
90 89 87 86 83 82 81 80 79 78 77 76 74 72 70 69 67 65 65 66 64 61 59 59 60 61 59 57 57 56 55 55 55 55 56 57 58 58 57 55 53 53
87 85 83 82 80 78 77 78 76 74 73 71 71 70 67 65 63 61 62 63 60 56 56 56 57 58 56 54 54 53 52 53 52 53 54 54 55 55 54 53 52 51
Wind_Direction
289 288 288 288 288 288 288 288 287 287 286 286 285 284 283 283 282 282 281 280 279 279 278 277 276 275 274 274 273 271 270 269 269 268 267 267 266 265 264 263 262 261
290 290 290 290 289 289 289 288 288 287 286 285 284 284 283 283 283 282 281 280 279 278 277 277 276 275 274 274 273 272 271 270 268 267 266 266 265 265 264 263 262 261
291 290 290 290 290 289 289 288 287 287 286 286 285 285 285 284 283 282 281 280 279 278 278 277 276 276 275 274 273 273 272 271 269 268 267 266 265 264 263 263 262 262
291 291 290 290 290 289 289 289 288 288 288 288 287 286 286 284 283 283 282 281 280 280 279 278 277 276 276 275 274 273 273 272 271 269 268 266 265 264 263 263 262 262
292 292 291 291 291 291 291 290 290 290 289 289 288 287 286 285 284 284 283 282 281 280 279 278 277 276 276 275 274 273 273 272 271 270 268 267 266 265 263 263 262 262
293 293 293 293 292 292 292 291 291 290 290 289 288 288 287 286 285 284 283 282 281 280 279 278 278 277 277 276 275 274 273 272 271 270 269 268 267 265 264 263 262 262
294 294 294 293 293 292 292 292 291 291 291 290 289 289 288 287 286 285 284 283 282 281 280 279 278 278 277 276 275 274 272 271 270 270 269 268 267 266 265 263 262 261
294 294 293 293 293 293 293 292 292 292 291 291 290 289 288 288 287 286 285 284 283 283 282 281 279 278 276 275 274 273 271 270 270 269 268 268 267 266 265 265 263 262
294 293 293 293 293 293 293 292 292 292 291 291 290 290 290 289 288 288 287 286 285 284 282 281 280 278 276 275 273 272 271 270 269 268 267 266 266 266 265 265 264 263
294 294 294 293 293 293 293 293 292 292 292 292 292 291 291 290 289 289 288 287 286 284 283 281 280 278 277 276 274 273 271 270 268 267 266 266 265 265 265 265 265 263
294 294 294 294 294 294 294 294 294 294 293 293 292 292 291 290 289 289 288 287 286 285 283 282 281 279 278 276 275 273 272 270 269 268 266 266 265 265 265 265 264 263
294 294 294 295 295 295 294 294 294 294 293 293 292 291 290 290 289 289 289 288 287 286 285 283 282 281 280 278 276 274 272 270 269 268 268 267 266 266 265 265 263 262
295 295 295 295 295 294 294 294 293 293 292 292 291 291 290 290 290 290 290 289 288 287 286 285 284 282 280 278 276 274 272 271 270 269 269 268 268 267 266 264 263 262
295 295 295 294 294 293 293 293 292 292 292 292 292 292 292 292 291 291 290 290 289 288 287 286 284 282 280 278 276 274 272 271 270 269 269 269 268 267 266 264 263 262
294 294 294 293 293 293 293 293 293 293 293 293 293 293 293 293 292 291 291 290 289 289 288 286 284 282 280 278 275 273 272 271 270 270 270 269 268 267 266 264 263 262
294 294 294 293 294 294 294 294 294 294 294 294 294 294 293 293 292 291 291 289 288 288 287 286 284 283 280 278 276 274 272 272 271 271 270 269 268 268 266 264 262 262
294 294 294 294 294 294 294 294 294 294 294 294 294 294 294 293 292 291 290 289 288 287 286 285 284 283 281 279 277 276 274 273 273 272 270 269 268 267 265 263 262 262
294 294 294 294 294 294 294 294 294 295 295 295 294 294 294 293 292 291 290 289 288 287 286 285 283 282 280 280 279 278 276 275 273 272 270 269 267 266 264 263 262 261
294 294 294 294 294 295 295 295 295 296 296 296 295 295 294 293 292 291 290 289 288 287 286 284 283 281 280 280 279 278 277 276 274 271 269 267 266 265 263 262 261 260
295 295 295 296 296 296 296 296 297 297 296 296 295 294 293 292 291 290 290 289 288 286 285 284 282 281 280 279 278 277 277 275 273 270 267 266 265 263 262 260 259 258
296 297 297 297 297 297 297 297 297 297 296 295 295 294 293 292 292 291 290 289 287 286 285 283 282 280 279 278 277 276 275 273 270 268 266 265 263 262 261 259 258 257
298 298 298 298 298 298 298 298 297 297 296 295 294 294 294 294 293 291 289 288 287 285 284 282 281 279 278 277 275 274 272 270 268 266 265 263 261 260 259 258 256 255
299 299 299 298 298 298 298 297 297 296 295 295 295 295 295 294 292 290 289 287 285 284 282 281 279 278 276 275 273 272 270 269 267 265 263 261 260 259 258 257 255 254
299 299 299 299 299 298 298 297 296 295 295 295 296 295 293 292 290 289 288 286 284 282 281 280 278 276 274 273 272 271 269 267 265 263 261 260 259 258 257 256 254 253
300 300 300 299 299 298 297 296 295 295 296 296 296 294 292 290 290 289 288 285 283 282 281 279 277 275 274 273 271 270 267 265 263 262 260 259 258 257 256 255 253 251
301 301 300 300 299 298 297 296 296 297 297 297 295 293 291 291 290 289 287 285 284 283 281 278 276 275 274 273 271 269 267 264 262 261 259 257 256 256 255 254 252 250